Showing default

FLOCK 4G 1, 62666

Orbit data source: Space-Track

FLOCK 4G 1, 62666 is a payload satellite owned by Planet (US) in SSO that was launched on Tue, 14 Jan 2025 UTC via an FALCON 9 launch vehicle from the Air Force Western Test Range (AFWTR). Payload-class satellites include a variety of spacecraft equipped with specific instruments for various scientific and technological missions. These include communications satellites like Starlink; space stations such as the ISS; scientific satellites like the Hubble; Earth observation satellites from companies like Planet Labs, Umbra, and HawkEye 360; GPS; miniature CubeSats for education and research; and military/defense satellites.

Loading next visibility...
Identifier
62666, 2025-009BK
Orbit
SSO
Country
Flag of USUS
Related business
Manufacturer
Planet
Mission
Operational Commercial Imaging
Bus & Motor
CUBESAT 3U, Unknown motor
Mass
5.7 kg wet, 5.7 kg dry
Launch date (UTC)
2025-01-14 (11 months ago)
Launch vehicle
FALCON 9
Launch site
Air Force Western Test Range (AFWTR)
Object type
Payload
Rocket body
Debris
Shape & HBR
Box + 2 Pan, 1.0 m
Radar Cross Section
0.072 m², Medium (>0.1 m² and < 1m²)

Expand to show TLE details & history
Last TLE update: 23 hours ago

TLE from 23 hours ago
0 FLOCK 4G 1
1 62666U 25009BK  25353.18626277  .00008448  00000-0  33922-3 0  9995
2 62666  97.4199  71.3713 0003846 224.0175 136.0757 15.25202302 51435
Epoch: 2025-12-19T04:28Z
TLE epoch observation values (Epoch: 2025-12-19T04:28:13.103Z)
Latitude
-0.00002°
Longitude
-83.71433°
Altitude
495.179 km
Speed
7.616 km/s
True Right ascension
04h 45m 29s
True Declination
0° 00' 00"
Sunlit
Object was in full shadow at epoch
Visualization orbit readout
Latitude
Unknown
Longitude
Unknown
Altitude
Unknown
Speed
Unknown
Apparent Right ascension
Unknown
Apparent Declination
Unknown
Sunlit
N/A
Visualization observer readout
Local Sidereal Time
02:24:02
Azimuth
Unknown
Elevation
Unknown
Doppler factor
Unknown
Orbital elements
Apogee altitude
489.778 km
Perigee altitude
484.497 km
Semi-major axis
6,865.275 km
Eccentricity
0.00038
Inclination
97.4199°
RAAN
71.3713°
Arg. of periapsis
224.0175°
True anomaly
136.10626°
Mean anomaly
136.0757°
Eccentric anomaly
136.09098°
Mean motion
3.81554 °/min
Orbital period
94.35 mins
BSTAR
0.00033922
Loading maneuver chart data...
Computing Atmospheric mass density...
Loading historical data...
Loading historical data...
Loading historical data...
Loading historical data...
Loading historical data...
Loading historical data...
Loading historical data...

Documentation

Showing up to 5 results
|